Tracking 28920 objects as of 27-May-2024
HD Live streaming from Space Station
objects crossing your sky now

ZHUHAI-1 03E

Track ZHUHAI-1 03E now!
10-day predictions


NORAD ID: 44539
Int'l Code: 2019-060F
Perigee: 452.4 km
Apogee: 486.5 km
Inclination: 97.5 °
Period: 93.8 minutes
Semi major axis: 6840 km
RCS: Unknown
Launch date: September 19, 2019
Source: People's Republic of China (PRC)
Launch site: Jiuquan Satellite Launch Center, China (JSC)
Your satellite tracking list
Your tracking list is empty




NASA's NSSDC Master Catalog

Two Line Element Set (TLE):
1 44539U 19060F   24147.85516630  .00026533  00000-0  78570-3 0  9992
2 44539  97.4954 276.3580 0024922 134.7509 225.5768 15.34540306260817
Source of the keplerian elements: AFSPC